Вернуться в каталог

STARLINK-37437

АктивенСвязьVLEO
NORAD 69170·PAYLOAD·🇺🇸 United States

Запущен May 21, 2026 с Cape Canaveral Space Force Station

Loading…

Ближайшие Пролёты (ближайшие 24 часа)

TLE

СвежийSource: CelesTrak SupGP

Эпоха: Sep 14, 2026, 23:13 UTC

1 69170C 26111Y   26257.96784722  .00041265  00000+0  12194-2 0  2574
2 69170  53.1566  91.4166 0001296  84.7646 205.2025 15.34363798    17

Отслеживайте STARLINK-37437 в реальном времени с AllMySat

Download on the App Store